#timestamp,LO_Frequency,Hit,StdDev 
1503867615.8,286046998.4,N,1.5
1503867635.7,286046998.6,N,1.5
1503867655.5,286046997.0,N,1.7
1503867675.3,286046998.1,N,1.7
1503867695.2,286047001.0,N,1.7
1503867715.0,286047001.0,N,1.6
1503867715.9,286047001.0,N,1.6
1503867735.8,286046998.6,N,1.6
1503867755.6,286047000.7,N,1.5
1503867775.4,286046998.2,N,1.5
1503867795.3,286046998.4,N,1.5
1503867815.1,286046998.5,N,1.5
1503867816.0,286046998.5,N,1.5
1503867835.8,286047000.7,N,1.5
1503867855.7,286047000.8,N,1.4
1503867875.5,286046998.6,N,1.4
1503867895.3,286046998.8,N,1.4
1503867915.2,286046999.2,N,1.4
1503867935.0,286046998.9,N,1.3
1503867935.9,286046998.9,N,1.3
1503867955.7,286046998.5,N,1.3
1503867975.6,286047000.8,N,1.3
1503867995.4,286047001.1,N,1.3
1503868015.2,286047001.1,N,1.3
1503868035.1,286047000.9,N,1.3
1503868036.0,286047000.9,N,1.3
1503868055.8,286047000.5,N,1.3
1503868075.6,286047000.3,N,1.2
1503868095.5,286046999.9,N,1.2
1503868115.3,286047000.3,N,1.2
1503868135.2,286047002.8,N,1.3
1503868155.9,286047000.6,N,1.3
1503868175.7,286047000.6,N,1.2
1503868195.6,286047000.9,N,1.2
1503868215.4,286047000.6,N,1.1
1503868235.2,286047000.5,N,1.1
1503868255.1,286047002.8,N,1.2
1503868256.0,286047002.8,N,1.3
1503868275.8,286046999.9,N,1.3
1503868295.6,286047002.4,N,1.3
1503868315.5,286682708.1,Y,0.0
1503868335.3,286046999.7,P,0.3
1503868355.1,286047001.0,P,0.5
1503868375.9,286047000.5,N,0.5
1503868395.7,286047001.0,N,0.5
1503868415.5,286047000.7,N,0.4
1503868435.4,286047000.2,N,0.4
1503868455.2,286046999.8,N,0.5
1503868475.0,286046999.8,N,0.5
1503868475.9,286046999.8,N,0.5
1503868495.8,286046999.7,N,0.5
1503868515.6,286046999.9,N,0.5
1503868535.4,286047000.1,N,0.5
1503868555.3,286047000.2,N,0.4
1503868575.1,286047002.7,Y,0.0
1503868595.8,286047000.1,P,0.0
1503868615.7,286047002.6,P,1.2
1503868635.5,286047002.7,N,1.3
1503868655.3,286047002.6,N,1.2
1503868675.2,286047002.5,N,1.2
1503868695.0,286047002.3,N,1.1
1503868695.9,286047002.3,N,1.0
1503868715.8,286046999.7,N,1.2
1503868735.6,286047002.0,N,1.1
1503868755.4,286047002.0,N,1.1
1503868775.3,286047001.5,N,1.0
1503868795.1,286047001.9,N,1.0
1503868796.0,286047001.9,N,1.0
1503868815.8,286047001.8,N,0.9
1503868835.7,286047003.7,Y,0.0
1503868855.5,286047001.6,P,0.1
1503868875.3,286047002.4,P,0.3
1503868895.2,286047000.1,N,0.8
1503868915.9,286047002.5,N,0.9
1503868935.7,286047002.6,N,0.9
1503868955.6,286047002.3,N,0.8
1503868975.4,286047002.8,Y,0.0
1503868995.2,286046998.2,P,1.8
1503869015.1,286047001.2,N,1.6
1503869016.0,286047001.2,N,1.4
1503869035.8,286046999.1,N,1.4
1503869055.6,286047001.1,N,1.3
1503869075.5,286046998.4,N,1.4
1503869095.3,286047001.0,N,1.4
1503869115.1,286047001.2,N,1.3
1503869135.9,286046998.7,N,1.3
1503869155.7,286046998.3,N,1.4
1503869175.5,286046999.0,N,1.4
1503869195.4,286046998.3,N,1.4
1503869215.2,286046998.3,N,1.4
1503869235.0,286047000.9,N,1.4
1503869235.9,286047000.9,N,1.4
1503869255.8,286047000.5,N,1.3
1503869275.6,286047000.4,N,1.3
1503869295.5,286047000.0,N,1.3
1503869315.3,286047000.7,N,1.2
1503869335.1,286047000.0,N,1.2
1503869355.9,286046999.8,N,1.2
1503869375.7,286047001.0,N,1.2
1503869395.5,286047000.5,N,1.2
1503869415.4,286047000.3,N,1.1
1503869435.2,286047000.6,N,1.1
1503869455.0,286047000.2,N,1.1
1503869455.9,286047000.2,N,1.1
1503869475.8,286047000.4,N,1.1
1503869495.6,286682705.5,Y,0.0
1503869515.4,286046999.9,P,0.1
1503869535.3,286047002.8,P,1.3
1503869555.1,286047002.1,N,1.3
1503869575.8,286047000.4,N,1.2
1503869595.7,286047000.4,N,1.1
1503869615.5,286047000.7,N,1.0
1503869635.3,286047000.0,N,1.0
1503869655.2,286047002.8,N,1.1
1503869675.9,286047002.7,N,1.2
1503869695.7,286047002.7,N,1.2
1503869715.6,286047002.8,N,1.2
1503869735.4,286047000.4,N,1.2
1503869755.2,286047000.3,N,1.2
1503869775.1,286047000.0,N,1.2
1503869776.0,286047000.0,N,1.2
1503869795.8,286047000.4,N,1.2
1503869815.6,286047000.4,N,1.2
1503869835.5,286046999.9,N,1.2
1503869855.3,286047000.3,N,1.1
1503869875.1,286047002.8,N,1.2
1503869895.9,286047000.3,N,1.2
1503869915.7,286047000.1,N,1.1
1503869935.5,286047002.8,N,1.2
1503869955.4,286046999.8,N,1.2
1503869975.2,286047002.7,N,1.2
1503869995.0,286047002.1,N,1.2
1503869995.9,286047002.1,N,1.2
1503870015.8,286047002.8,N,1.2
1503870035.6,286046999.9,N,1.2
1503870055.4,286047002.2,N,1.2
1503870075.3,286047001.8,N,1.2
1503870095.1,286047001.6,N,1.2
1503870115.8,286047002.3,N,1.2
1503870135.7,286047002.4,N,1.2
1503870155.5,286047002.6,N,1.2
1503870175.3,286047002.3,N,1.2
1503870195.2,286047002.3,N,1.2
1503870215.0,286047002.5,N,1.2
1503870215.9,286047002.5,N,1.1
1503870235.7,286047001.9,N,1.1
1503870255.6,286047004.4,Y,0.0
1503870275.4,286047000.0,P,0.7
1503870295.2,286047000.4,N,0.6
1503870315.1,286047001.0,N,0.6
1503870316.0,286047001.0,N,0.5
1503870335.8,286047000.9,N,0.5
1503870355.7,286047000.4,N,0.5
1503870375.5,286047000.8,N,0.4
1503870395.3,286046999.9,N,0.5
1503870415.2,286047000.2,N,0.5
1503870435.9,286047002.3,Y,0.0
1503870455.7,286047000.9,P,0.1
1503870475.6,286047000.6,P,0.1
1503870495.4,286047000.4,N,0.2
1503870515.2,286047000.3,N,0.2
1503870535.1,286047002.6,Y,0.0
1503870536.0,286047002.6,P,1.0
1503870555.8,286047000.4,N,1.0
1503870575.6,286046999.9,N,1.0
1503870595.5,286047002.7,N,1.2
1503870615.3,286046999.8,N,1.2
1503870635.1,286046999.8,N,1.2
1503870655.9,286047000.1,N,1.1
1503870675.7,286047000.2,N,1.1
1503870695.5,286047000.5,N,1.0
1503870715.4,286047001.1,N,1.0
1503870735.2,286046998.5,N,1.1
1503870755.0,286046998.1,N,1.3
1503870755.9,286046998.1,N,1.3
1503870775.8,286046998.2,N,1.4
1503870795.6,286046998.1,N,1.4
1503870815.4,286047000.3,N,1.4
1503870835.3,286047000.6,N,1.4
1503870855.1,286047002.8,N,1.5
1503870875.8,286047000.0,N,1.4
1503870895.7,286047001.0,N,1.4
1503870915.5,286047000.5,N,1.4
1503870935.4,286046999.7,N,1.3
1503870955.2,286047001.1,N,1.3
1503870975.0,286046998.4,N,1.3
1503870975.9,286046998.4,N,1.4
1503870995.8,286046998.4,N,1.4
1503871015.6,286046998.7,N,1.4
1503871035.4,286046998.2,N,1.4
1503871055.3,286047001.1,N,1.4
1503871075.1,286046998.5,N,1.4
1503871076.0,286046998.5,N,1.3
1503871095.8,286046999.0,N,1.3
1503871115.7,286046996.7,N,1.4
1503871135.5,286046999.6,N,1.3
1503871155.3,286046997.4,N,1.3
1503871175.2,286046996.6,N,1.4
1503871195.9,286046999.1,N,1.4
